EN

Hourly Weather Kyyanivka

Today, 5 August, Thursday

Time Temperature Precipitation Wind Pressure Humidity
00:00 +17°C° 0 mm 2 mps 733 mmHg 91%
01:00 +17°C° 0 mm 2 mps 732 mmHg 92%
02:00 +17°C° 0 mm 2 mps 732 mmHg 90%
03:00 +18°C° 0 mm 1 mps 732 mmHg 90%
04:00 +18°C° 0 mm 1 mps 732 mmHg 90%
05:00 +18°C° 0 mm 1 mps 731 mmHg 90%
06:00 +20°C° 0 mm 1 mps 731 mmHg 86%
07:00 +20°C° 0 mm 2 mps 731 mmHg 82%
08:00 +21°C° 0 mm 2 mps 731 mmHg 77%
09:00 +24°C° 0.2 mm 3 mps 731 mmHg 72%
10:00 +25°C° 0.2 mm 3 mps 731 mmHg 67%
11:00 +27°C° 0.2 mm 4 mps 731 mmHg 61%
12:00 +28°C° 0.2 mm 4 mps 731 mmHg 58%
13:00 +29°C° 0.2 mm 4 mps 730 mmHg 55%
14:00 +29°C° 0.2 mm 5 mps 730 mmHg 52%
15:00 +29°C° 0 mm 4 mps 729 mmHg 53%
16:00 +29°C° 0 mm 4 mps 728 mmHg 54%
17:00 +30°C° 0 mm 4 mps 728 mmHg 55%
18:00 +28°C° 0 mm 4 mps 727 mmHg 60%
19:00 +26°C° 0 mm 4 mps 727 mmHg 64%
20:00 +25°C° 0 mm 4 mps 726 mmHg 69%
21:00 +22°C° 5.7 mm 4 mps 726 mmHg 77%
22:00 +20°C° 5.7 mm 4 mps 726 mmHg 85%
23:00 +19°C° 5.7 mm 4 mps 726 mmHg 94%

Tomorrow, 6 August, Friday

Time Temperature Precipitation Wind Pressure Humidity
00:00 +19°C° 0.4 mm 4 mps 726 mmHg 94%
01:00 +19°C° 0.4 mm 5 mps 725 mmHg 94%
02:00 +20°C° 0.4 mm 5 mps 725 mmHg 94%
03:00 +20°C° 0.6 mm 4 mps 724 mmHg 95%
04:00 +20°C° 0.6 mm 4 mps 724 mmHg 95%
05:00 +20°C° 0.6 mm 3 mps 724 mmHg 95%
06:00 +20°C° 0.2 mm 3 mps 724 mmHg 91%
07:00 +21°C° 0.2 mm 3 mps 724 mmHg 87%
08:00 +23°C° 0.2 mm 2 mps 724 mmHg 83%
09:00 +24°C° 0 mm 2 mps 725 mmHg 75%
10:00 +25°C° 0 mm 2 mps 725 mmHg 67%
11:00 +27°C° 0 mm 2 mps 725 mmHg 59%
12:00 +27°C° 0 mm 2 mps 725 mmHg 57%
13:00 +27°C° 0 mm 2 mps 725 mmHg 54%
14:00 +28°C° 0 mm 2 mps 725 mmHg 52%
15:00 +26°C° 0.5 mm 3 mps 725 mmHg 61%
16:00 +23°C° 0.5 mm 4 mps 725 mmHg 70%
17:00 +21°C° 0.5 mm 5 mps 725 mmHg 80%
18:00 +20°C° 0.3 mm 4 mps 726 mmHg 83%
19:00 +19°C° 0.3 mm 3 mps 726 mmHg 86%
20:00 +18°C° 0.3 mm 2 mps 727 mmHg 90%
21:00 +18°C° 0 mm 3 mps 727 mmHg 91%
22:00 +17°C° 0 mm 3 mps 727 mmHg 92%
23:00 +15°C° 0 mm 4 mps 727 mmHg 94%

Day after tomorrow, 7 August, Saturday

Time Temperature Precipitation Wind Pressure Humidity
00:00 +14°C° 0 mm 4 mps 727 mmHg 94%
01:00 +14°C° 0 mm 3 mps 728 mmHg 95%
02:00 +13°C° 0 mm 3 mps 728 mmHg 96%
03:00 +13°C° 0 mm 3 mps 729 mmHg 96%
04:00 +12°C° 0 mm 3 mps 729 mmHg 96%
05:00 +12°C° 0 mm 3 mps 729 mmHg 97%
06:00 +13°C° 0 mm 3 mps 730 mmHg 90%
07:00 +16°C° 0 mm 3 mps 730 mmHg 82%
08:00 +17°C° 0 mm 3 mps 730 mmHg 75%
09:00 +18°C° 0 mm 4 mps 731 mmHg 69%
10:00 +20°C° 0 mm 4 mps 731 mmHg 62%
11:00 +22°C° 0 mm 4 mps 731 mmHg 55%
12:00 +22°C° 0 mm 4 mps 731 mmHg 52%
13:00 +23°C° 0 mm 4 mps 731 mmHg 49%
14:00 +25°C° 0 mm 4 mps 731 mmHg 46%
15:00 +25°C° 0 mm 3 mps 731 mmHg 46%
16:00 +25°C° 0 mm 3 mps 732 mmHg 47%
17:00 +25°C° 0 mm 2 mps 732 mmHg 47%
18:00 +24°C° 0 mm 2 mps 732 mmHg 53%
19:00 +22°C° 0 mm 1 mps 732 mmHg 58%
20:00 +20°C° 0 mm 1 mps 732 mmHg 63%
21:00 +20°C° 0 mm 1 mps 732 mmHg 65%
22:00 +19°C° 0 mm 1 mps 733 mmHg 66%
23:00 +18°C° 0 mm 1 mps 733 mmHg 68%

8 August, Sunday

Time Temperature Precipitation Wind Pressure Humidity
00:00 +18°C° 0 mm 1 mps 733 mmHg 69%
01:00 +18°C° 0 mm 1 mps 733 mmHg 71%
02:00 +16°C° 0 mm 1 mps 733 mmHg 72%
03:00 +16°C° 0 mm 1 mps 733 mmHg 73%
04:00 +16°C° 0 mm 1 mps 733 mmHg 74%
05:00 +16°C° 0 mm 1 mps 734 mmHg 75%
06:00 +19°C° 0 mm 1 mps 734 mmHg 71%
07:00 +20°C° 0 mm 2 mps 734 mmHg 66%
08:00 +23°C° 0 mm 2 mps 734 mmHg 61%
09:00 +24°C° 0 mm 2 mps 734 mmHg 57%
10:00 +25°C° 0 mm 3 mps 734 mmHg 54%
11:00 +27°C° 0 mm 4 mps 735 mmHg 50%
12:00 +27°C° 0 mm 4 mps 735 mmHg 48%
13:00 +28°C° 0 mm 3 mps 735 mmHg 47%
14:00 +28°C° 0 mm 3 mps 735 mmHg 45%
15:00 +28°C° 0 mm 3 mps 734 mmHg 47%
16:00 +28°C° 0 mm 3 mps 734 mmHg 48%
17:00 +28°C° 0 mm 3 mps 734 mmHg 50%
18:00 +26°C° 0 mm 3 mps 734 mmHg 55%
19:00 +24°C° 0 mm 3 mps 734 mmHg 61%
20:00 +21°C° 0 mm 3 mps 734 mmHg 66%
21:00 +21°C° 0 mm 3 mps 734 mmHg 67%
22:00 +20°C° 0 mm 3 mps 734 mmHg 67%
23:00 +20°C° 0 mm 3 mps 735 mmHg 68%

9 August, Monday

Time Temperature Precipitation Wind Pressure Humidity
00:00 +19°C° 0 mm 3 mps 734 mmHg 68%
01:00 +19°C° 0 mm 3 mps 734 mmHg 68%
02:00 +19°C° 0 mm 3 mps 734 mmHg 67%
03:00 +19°C° 0 mm 3 mps 734 mmHg 67%
04:00 +18°C° 0 mm 3 mps 734 mmHg 67%
05:00 +18°C° 0 mm 3 mps 734 mmHg 67%
06:00 +20°C° 0 mm 3 mps 734 mmHg 64%
07:00 +23°C° 0 mm 2 mps 735 mmHg 60%
08:00 +24°C° 0 mm 2 mps 735 mmHg 57%
09:00 +26°C° 0 mm 3 mps 735 mmHg 53%
10:00 +27°C° 0 mm 3 mps 735 mmHg 50%
11:00 +29°C° 0 mm 4 mps 735 mmHg 47%
12:00 +29°C° 0 mm 4 mps 735 mmHg 46%
13:00 +30°C° 0 mm 4 mps 735 mmHg 45%
14:00 +32°C° 0 mm 4 mps 735 mmHg 44%
15:00 +31°C° 0 mm 3 mps 735 mmHg 45%
16:00 +31°C° 0 mm 2 mps 735 mmHg 47%
17:00 +31°C° 0 mm 2 mps 735 mmHg 48%
18:00 +28°C° 0.2 mm 2 mps 735 mmHg 57%
19:00 +26°C° 0.2 mm 3 mps 735 mmHg 67%
20:00 +24°C° 0.2 mm 3 mps 735 mmHg 76%
21:00 +21°C° 1.2 mm 3 mps 735 mmHg 82%
22:00 +20°C° 1.2 mm 3 mps 735 mmHg 88%
23:00 +19°C° 1.2 mm 3 mps 736 mmHg 94%

10 August, Tuesday

Time Temperature Precipitation Wind Pressure Humidity
00:00 +19°C° 0.6 mm 3 mps 736 mmHg 95%
01:00 +18°C° 0.6 mm 3 mps 735 mmHg 95%
02:00 +18°C° 0.6 mm 4 mps 735 mmHg 96%
03:00 +17°C° 0.3 mm 3 mps 735 mmHg 96%
04:00 +17°C° 0.3 mm 3 mps 735 mmHg 97%
05:00 +17°C° 0.3 mm 3 mps 735 mmHg 97%
06:00 +18°C° 0.1 mm 3 mps 735 mmHg 94%
07:00 +18°C° 0.1 mm 3 mps 736 mmHg 92%
08:00 +19°C° 0.1 mm 3 mps 736 mmHg 89%
09:00 +20°C° 0.5 mm 3 mps 736 mmHg 87%
10:00 +20°C° 0.4 mm 3 mps 736 mmHg 86%
11:00 +20°C° 0.4 mm 3 mps 736 mmHg 84%
12:00 +20°C° 0.1 mm 3 mps 736 mmHg 83%
13:00 +21°C° 0.1 mm 3 mps 736 mmHg 82%
14:00 +21°C° 0.1 mm 2 mps 736 mmHg 81%
15:00 +20°C° 0.1 mm 2 mps 736 mmHg 82%
16:00 +20°C° 0.1 mm 2 mps 736 mmHg 84%
17:00 +20°C° 0.1 mm 2 mps 736 mmHg 85%
18:00 +19°C° 0 mm 2 mps 735 mmHg 86%
19:00 +19°C° 0 mm 2 mps 735 mmHg 86%
20:00 +18°C° 0 mm 2 mps 735 mmHg 87%
21:00 +18°C° 0 mm 2 mps 735 mmHg 86%
22:00 +17°C° 0 mm 2 mps 735 mmHg 86%
23:00 +17°C° 0 mm 3 mps 735 mmHg 85%
Show more